ACA46 CYHZ-CYQM

Flight info

Callsign ACA46
Flight time 0h 24m
Altitude 16000
Route KELNO
Aircraft A321/M-SDE3FGHIRWY/LB1

Departure

Time 2026-05-04 23:58
Airport Halifax / Stanfield International Airport (CYHZ)

Arrival

Time 2026-05-05 00:22
Airport Greater Moncton Roméo LeBlanc International Airport (CYQM)
Time Latitude Longitude Altitude Speed Heading
2026-05-04 23:35 44.88550 -63.51348 452 ft 0 kts 269°
2026-05-04 23:45 44.88551 -63.51328 452 ft 4 kts 269°
2026-05-04 23:45 44.88551 -63.51299 452 ft 4 kts 269°
2026-05-04 23:46 44.88551 -63.51263 448 ft 2 kts 269°
2026-05-04 23:46 44.88552 -63.51233 448 ft 2 kts 269°
2026-05-04 23:46 44.88552 -63.51230 448 ft 0 kts 269°
2026-05-04 23:48 44.88583 -63.51254 452 ft 11 kts 350°
2026-05-04 23:48 44.88661 -63.51251 452 ft 11 kts 22°
2026-05-04 23:49 44.88698 -63.51159 452 ft 16 kts 78°
2026-05-04 23:49 44.88722 -63.50957 452 ft 23 kts 72°
2026-05-04 23:49 44.88831 -63.50818 451 ft 21 kts 35°
2026-05-04 23:49 44.88937 -63.50711 450 ft 1 kts 36°
2026-05-04 23:51 44.88938 -63.50710 450 ft 2 kts 36°
2026-05-04 23:52 44.88989 -63.50657 451 ft 14 kts 41°
2026-05-04 23:52 44.89002 -63.50622 450 ft 0 kts 74°
2026-05-04 23:55 44.89004 -63.50618 451 ft 2 kts 70°
2026-05-04 23:55 44.89003 -63.50600 451 ft 2 kts 102°
2026-05-04 23:56 44.88988 -63.50552 450 ft 12 kts 122°
2026-05-04 23:56 44.88940 -63.50455 451 ft 11 kts 125°
2026-05-04 23:56 44.88878 -63.50440 451 ft 10 kts 216°
2026-05-04 23:57 44.88875 -63.50444 451 ft 0 kts 215°
2026-05-04 23:57 44.88872 -63.50446 451 ft 1 kts 215°
2026-05-04 23:57 44.88801 -63.50518 451 ft 40 kts 215°
2026-05-04 23:57 44.88385 -63.50929 450 ft 103 kts 215°
2026-05-04 23:58 44.87667 -63.51647 462 ft 147 kts 218°
2026-05-04 23:58 44.86791 -63.52459 936 ft 149 kts 219°
2026-05-04 23:58 44.85965 -63.53336 1584 ft 148 kts 225°
2026-05-04 23:58 44.85152 -63.54231 2111 ft 152 kts 225°
2026-05-04 23:59 44.84304 -63.55261 2268 ft 169 kts 237°
2026-05-04 23:59 44.83912 -63.56878 2427 ft 190 kts 272°
2026-05-04 23:59 44.84449 -63.58711 2794 ft 218 kts 297°
2026-05-04 23:59 44.85308 -63.60513 3612 ft 223 kts 298°
2026-05-05 00:00 44.86179 -63.62306 4535 ft 226 kts 298°
2026-05-05 00:00 44.86479 -63.62924 4826 ft 227 kts 298°
2026-05-05 00:00 44.87976 -63.66003 6290 ft 231 kts 298°
2026-05-05 00:00 44.88885 -63.67883 7092 ft 234 kts 298°
2026-05-05 00:01 44.89805 -63.69797 7889 ft 237 kts 298°
2026-05-05 00:01 44.90738 -63.71742 8663 ft 241 kts 298°
2026-05-05 00:01 44.91684 -63.73713 9470 ft 244 kts 298°
2026-05-05 00:01 44.92648 -63.75722 10116 ft 254 kts 298°
2026-05-05 00:02 44.93661 -63.77853 10307 ft 276 kts 298°
2026-05-05 00:02 44.94771 -63.80199 10451 ft 299 kts 298°
2026-05-05 00:02 44.95970 -63.82731 10568 ft 321 kts 299°
2026-05-05 00:02 44.97243 -63.85417 10805 ft 337 kts 299°
2026-05-05 00:03 44.98746 -63.88037 11344 ft 351 kts 312°
2026-05-05 00:03 45.00860 -63.89883 11971 ft 369 kts 332°
2026-05-05 00:03 45.03324 -63.91032 12625 ft 375 kts 335°
2026-05-05 00:03 45.05832 -63.92118 13279 ft 378 kts 335°
2026-05-05 00:04 45.08332 -63.93172 13850 ft 381 kts 336°
2026-05-05 00:04 45.10884 -63.94242 14424 ft 384 kts 335°
2026-05-05 00:04 45.13449 -63.95324 14995 ft 386 kts 335°
2026-05-05 00:04 45.16025 -63.96422 15558 ft 388 kts 335°
2026-05-05 00:05 45.18613 -63.97532 15770 ft 391 kts 335°
2026-05-05 00:05 45.21242 -63.98669 15791 ft 397 kts 335°
2026-05-05 00:05 45.23888 -63.99820 15792 ft 398 kts 335°
2026-05-05 00:05 45.26540 -64.00968 15775 ft 398 kts 335°
2026-05-05 00:06 45.29190 -64.02110 15779 ft 399 kts 335°
2026-05-05 00:06 45.31808 -64.03237 15786 ft 398 kts 335°
2026-05-05 00:06 45.34453 -64.04375 15781 ft 397 kts 335°
2026-05-05 00:06 45.37092 -64.05515 15769 ft 397 kts 335°
2026-05-05 00:07 45.39732 -64.06664 15769 ft 397 kts 335°
2026-05-05 00:07 45.42372 -64.07816 15792 ft 398 kts 335°
2026-05-05 00:07 45.45039 -64.08980 16066 ft 403 kts 335°
2026-05-05 00:07 45.47682 -64.10128 16058 ft 401 kts 335°
2026-05-05 00:08 45.50351 -64.11284 16052 ft 400 kts 335°
2026-05-05 00:08 45.52968 -64.12419 16052 ft 395 kts 335°
2026-05-05 00:08 45.55578 -64.13553 15852 ft 389 kts 335°
2026-05-05 00:08 45.58133 -64.14663 14424 ft 381 kts 335°
2026-05-05 00:09 45.60684 -64.15781 13426 ft 384 kts 336°
2026-05-05 00:09 45.63180 -64.16872 13280 ft 366 kts 336°
2026-05-05 00:09 45.65585 -64.17921 12901 ft 360 kts 336°
2026-05-05 00:09 45.67976 -64.18975 12377 ft 359 kts 336°
2026-05-05 00:10 45.70350 -64.20023 11881 ft 357 kts 336°
2026-05-05 00:10 45.72718 -64.21070 11397 ft 354 kts 336°
2026-05-05 00:10 45.75023 -64.22081 11223 ft 339 kts 336°
2026-05-05 00:10 45.77202 -64.23032 11110 ft 324 kts 336°
2026-05-05 00:11 45.79315 -64.23958 10978 ft 311 kts 335°
2026-05-05 00:11 45.81340 -64.24843 10843 ft 298 kts 335°
2026-05-05 00:11 45.83288 -64.25695 10724 ft 287 kts 335°
2026-05-05 00:11 45.85160 -64.26518 10551 ft 277 kts 335°
2026-05-05 00:12 45.86989 -64.27327 10287 ft 273 kts 334°
2026-05-05 00:12 45.88795 -64.28128 10033 ft 271 kts 334°
2026-05-05 00:12 45.90590 -64.28928 9867 ft 270 kts 334°
2026-05-05 00:12 45.92360 -64.29719 9759 ft 270 kts 335°
2026-05-05 00:13 45.94148 -64.30518 9629 ft 269 kts 335°
2026-05-05 00:13 45.95928 -64.31313 9498 ft 268 kts 335°
2026-05-05 00:13 45.97683 -64.32098 9352 ft 267 kts 335°
2026-05-05 00:13 45.99472 -64.32897 8918 ft 268 kts 335°
2026-05-05 00:14 46.01254 -64.33692 8452 ft 268 kts 335°
2026-05-05 00:14 46.03028 -64.34479 8004 ft 267 kts 336°
2026-05-05 00:14 46.04795 -64.35262 7556 ft 266 kts 336°
2026-05-05 00:14 46.06560 -64.36043 7193 ft 264 kts 336°
2026-05-05 00:15 46.08298 -64.36815 6768 ft 263 kts 336°
2026-05-05 00:15 46.10037 -64.37589 6395 ft 261 kts 336°
2026-05-05 00:15 46.11772 -64.38364 5990 ft 260 kts 337°
2026-05-05 00:15 46.13496 -64.39135 5623 ft 258 kts 337°
2026-05-05 00:16 46.15160 -64.39879 5448 ft 248 kts 337°
2026-05-05 00:16 46.16788 -64.40604 5338 ft 236 kts 337°
2026-05-05 00:16 46.18317 -64.41292 5230 ft 224 kts 333°
2026-05-05 00:16 46.19612 -64.42343 5090 ft 208 kts 316°
2026-05-05 00:17 46.20603 -64.43800 4775 ft 206 kts 308°
2026-05-05 00:17 46.21569 -64.45329 4480 ft 206 kts 308°
2026-05-05 00:17 46.22537 -64.46850 4196 ft 204 kts 308°
2026-05-05 00:17 46.23487 -64.48339 3896 ft 200 kts 308°
2026-05-05 00:18 46.24202 -64.49972 3604 ft 190 kts 280°
2026-05-05 00:18 46.23940 -64.51730 3348 ft 183 kts 238°
2026-05-05 00:18 46.23000 -64.52901 3111 ft 176 kts 224°
2026-05-05 00:18 46.22091 -64.54020 2855 ft 169 kts 230°
2026-05-05 00:19 46.21246 -64.55173 2619 ft 166 kts 231°
2026-05-05 00:19 46.20434 -64.56288 2393 ft 156 kts 231°
2026-05-05 00:19 46.19679 -64.57305 2192 ft 140 kts 231°
2026-05-05 00:19 46.18989 -64.58236 1992 ft 133 kts 231°
2026-05-05 00:20 46.18320 -64.59140 1810 ft 130 kts 231°
2026-05-05 00:20 46.17657 -64.60030 1611 ft 129 kts 230°
2026-05-05 00:20 46.16999 -64.60913 1439 ft 130 kts 229°
2026-05-05 00:20 46.16335 -64.61803 1265 ft 130 kts 229°
2026-05-05 00:21 46.15672 -64.62686 1084 ft 129 kts 227°
2026-05-05 00:21 46.15015 -64.63561 915 ft 130 kts 226°
2026-05-05 00:21 46.14352 -64.64444 746 ft 129 kts 226°
2026-05-05 00:21 46.13695 -64.65327 614 ft 131 kts 226°
2026-05-05 00:22 46.13018 -64.66216 394 ft 132 kts 226°
2026-05-05 00:22 46.12361 -64.67104 205 ft 127 kts 226°
2026-05-05 00:22 46.11864 -64.67763 206 ft 59 kts 222°
2026-05-05 00:22 46.11607 -64.68102 214 ft 45 kts 223°
2026-05-05 00:23 46.11396 -64.68381 207 ft 38 kts 222°
2026-05-05 00:23 46.11339 -64.68564 210 ft 20 kts 304°
2026-05-05 00:23 46.11392 -64.68649 201 ft 0 kts 312°
2026-05-05 00:23 46.11399 -64.68660 201 ft 7 kts 312°
2026-05-05 00:24 46.11442 -64.68724 206 ft 9 kts 321°
2026-05-05 00:24 46.11504 -64.68696 204 ft 10 kts 41°
2026-05-05 00:24 46.11556 -64.68679 207 ft 5 kts 321°
2026-05-05 00:24 46.11579 -64.68714 206 ft 4 kts 314°
2026-05-05 00:25 46.11586 -64.68723 206 ft 1 kts 315°
2026-05-05 00:25 46.11588 -64.68726 206 ft 0 kts 315°
2026-05-05 00:25 46.11589 -64.68728 206 ft 0 kts 315°